Content
SEND FEEDBACK

Daily
Averages
Monthly
Summary
United States of America

OAKES, NORTH DAKOTA


Home > North America > United States > North Dakota
Elevation: 1315 feet     Latitude: 46 08N     Longitude: 098 05W

WEATHER
 
SELECT A DAY
Number of Records: 73,969;   Date Range: 5/13/11 - 8/27/14
 
SHARE

PRINT THIS DATA

[ ← Previous Day ]
WEATHER ALMANAC - MAY 13, 2014
[ Next Day → ]
[ °C ]   °F
Weather ElementAverageHighLow
Temperature47.6 °F53.6 °F (5:35 pm)37.4 °F (11:15 pm)
Dewpoint31.4 °F35.6 °F (11:55 am)28.4 °F (4:55 pm)
Humidity54.8 %81 % (11:15 pm)41 % (5:15 pm)
Barometer30.18 in30.19 in (2:55 pm)30.15 in (11:55 am)
Wind Speed14.5 mph24.2 mph (12:55 pm)
Wind Gust33.4 mph (1:15 pm)
Weather ElementAverage
Visibility10 mi
Wind DirectionW (266.6 °)

Weather ElementTotal
Precipitation---
Heating Degree Days19.5 (Base 65)
Averaged from 35 records on May 13, 2014
WEATHER CONDITIONS BREAKOUT
WIND DIRECTION BREAKOUT
WEATHER BY HOUR - MAY 13, 2014
[ °C ]   °F
Local TimeTemperatureDewpointHumidityBarometerVisibilityWind DirectionWind SpeedGust SpeedPrecipitationEventsConditions
11:55 AM48.2 °F35.6 °F62 %30.15 in10.0 miNW (320°)20.7 mph29.9 mphMostly Cloudy
12:35 PM48.2 °F35.6 °F62 %30.15 in10.0 miNNW (340°)21.9 mph31.1 mphOvercast
12:55 PM48.2 °F33.8 °F58 %30.15 in10.0 miNW (320°)24.2 mph31.1 mphOvercast
1:15 PM50.0 °F32.0 °F50 %30.16 in10.0 miNW (310°)24.2 mph33.4 mphOvercast
1:35 PM48.2 °F32.0 °F54 %30.17 in10.0 miNW (320°)20.7 mph29.9 mphOvercast
1:55 PM48.2 °F32.0 °F54 %30.17 in10.0 miNW (320°)24.2 mph28.8 mphOvercast
2:15 PM48.2 °F32.0 °F54 %30.18 in10.0 miNW (320°)18.4 mph27.6 mphOvercast
2:35 PM48.2 °F32.0 °F54 %30.18 in10.0 miNW (310°)19.6 mph26.5 mphOvercast
2:55 PM50.0 °F32.0 °F50 %30.19 in10.0 miNW (310°)21.9 mph29.9 mphOvercast
3:15 PM50.0 °F32.0 °F50 %30.19 in10.0 miNW (320°)23.0 mph28.8 mphOvercast
3:35 PM50.0 °F32.0 °F50 %30.19 in10.0 miNNW (330°)18.4 mph28.8 mphOvercast
3:55 PM50.0 °F32.0 °F50 %30.19 in10.0 miWNW (300°)21.9 mph28.8 mphOvercast
4:15 PM50.0 °F32.0 °F50 %30.19 in10.0 miNW (320°)19.6 mph28.8 mphMostly Cloudy
4:35 PM50.0 °F32.0 °F50 %30.19 in10.0 miNW (310°)18.4 mph28.8 mphMostly Cloudy
4:55 PM50.0 °F28.4 °F43 %30.18 in10.0 miWNW (300°)20.7 mph29.9 mphMostly Cloudy
5:15 PM51.8 °F28.4 °F41 %30.18 in10.0 miWNW (290°)18.4 mph23.0 mphScattered Clouds
5:35 PM53.6 °F30.2 °F41 %30.18 in10.0 miWNW (300°)17.3 mph24.2 mphScattered Clouds
5:55 PM50.0 °F30.2 °F47 %30.18 in10.0 miNW (310°)18.4 mph21.9 mphMostly Cloudy
6:15 PM53.6 °F30.2 °F41 %30.17 in10.0 miWNW (300°)16.1 mph23.0 mphMostly Cloudy
6:35 PM51.8 °F28.4 °F41 %30.17 in10.0 miWNW (300°)17.3 mph26.5 mphScattered Clouds
6:55 PM51.8 °F28.4 °F41 %30.17 in10.0 miNW (320°)19.6 mph25.3 mphPartly Cloudy
7:15 PM51.8 °F28.4 °F41 %30.16 in10.0 miWNW (300°)19.6 mphClear
7:35 PM50.0 °F30.2 °F47 %30.17 in10.0 miNW (320°)12.7 mphClear
7:55 PM50.0 °F30.2 °F47 %30.17 in10.0 miNW (320°)10.4 mphClear
8:15 PM50.0 °F28.4 °F43 %30.17 in10.0 miNW (310°)10.4 mphClear
8:35 PM46.4 °F32.0 °F57 %30.17 in10.0 miNW (320°)8.1 mphClear
8:55 PM44.6 °F32.0 °F61 %30.17 in10.0 miNNW (330°)6.9 mphClear
9:15 PM44.6 °F32.0 °F61 %30.17 in10.0 miNW (320°)5.8 mphClear
9:55 PM42.8 °F32.0 °F66 %30.18 in10.0 miWNW (290°)3.5 mphClear
10:15 PM41.0 °F32.0 °F70 %30.18 in10.0 miCalmClear
10:35 PM41.0 °F32.0 °F70 %30.18 in10.0 miWSW (250°)4.6 mphClear
10:55 PM39.2 °F32.0 °F75 %30.18 in10.0 miCalmClear
11:15 PM37.4 °F32.0 °F81 %30.19 in10.0 miCalmClear
11:35 PM39.2 °F32.0 °F75 %30.19 in10.0 miCalmClear
11:55 PM37.4 °F32.0 °F81 %30.19 in10.0 miCalmClear
Hourly data recorded from K2D5, located miles away from Oakes, North Dakota







STORIES FROM OUR PARTNERS